Voltar ao catálogo

STARLINK-31940

AtivoComunicaçõesVLEO
NORAD 59873·PAYLOAD·🇺🇸 United States

Lançado May 24, 2024 de Cape Canaveral Space Force Station

Loading…

Próximas Passagens (próximas 24 horas)

TLE

AtualizadoSource: CelesTrak SupGP

Época: Sep 14, 2026, 21:19 UTC

1 59873C 24098R   26257.88868056  .00006674  00000+0  24172-3 0  2574
2 59873  43.0018 281.8825 0001350 264.3287 314.0790 15.27575460    12

Acompanhe STARLINK-31940 em tempo real com AllMySat

Download on the App Store